Location: Miami, Florida
(25.6830°N, 80.1700°W)
Time: 10:58:32
(UTC-04:00)

Vanguard 2 - Visible Passes

Search period start: 22 November 2017 00:00
Search period end: 02 December 2017 00:00
Orbit: 553 x 2939 km, 32.9° (Epoch: 22 November)

Date Brightness Start Highest point End Pass type
(mag) Time Alt. Az. Time Alt. Az. Time Alt. Az.
22 Nov 10.1 03:48:25 59° E 03:48:25 59° E 04:01:39 10° ESE visible
22 Nov 10.2 05:49:51 36° W 05:57:12 63° SSW 06:14:49 10° SE visible
23 Nov 11.7 02:04:13 12° E 02:04:13 12° E 02:04:58 10° E visible
23 Nov 9.9 04:05:39 70° ESE 04:05:39 70° ESE 04:20:20 10° ESE visible
23 Nov 10.4 06:07:06 28° W 06:15:32 51° SSW 06:32:28 10° SE visible
24 Nov 11.5 02:21:28 16° E 02:21:28 16° E 02:23:58 10° E visible
24 Nov 9.7 04:22:54 76° SSE 04:22:54 76° SSE 04:38:48 10° ESE visible
24 Nov 10.6 06:24:21 20° W 06:33:51 40° SW 06:49:45 10° SSE visible
24 Nov 9.0 19:58:05 10° S 20:00:11 15° SSE 20:00:11 15° SSE visible
25 Nov 11.3 02:38:43 21° E 02:38:43 21° E 02:42:55 10° E visible
25 Nov 9.7 04:40:10 68° SSW 04:40:10 68° SSW 04:56:58 10° SE visible
25 Nov 10.9 06:41:36 14° W 06:52:12 31° SW 07:06:35 10° SSE visible
25 Nov 8.4 20:14:57 10° SSW 20:17:29 25° SSE 20:17:29 25° SSE visible
26 Nov 11.0 02:55:59 26° ESE 02:55:59 26° ESE 03:01:44 10° ESE visible
26 Nov 9.9 04:57:26 54° SW 04:58:24 55° SSW 05:14:49 10° SE visible
26 Nov 11.1 07:00:03 10° W 07:10:36 23° SW 07:22:46 10° S visible
26 Nov 8.4 20:32:27 10° SW 20:34:46 31° SSW 20:34:46 31° SSW visible
27 Nov 10.8 03:13:15 31° ESE 03:13:15 31° ESE 03:20:19 10° ESE visible
27 Nov 10.1 05:14:41 41° SW 05:16:46 43° SSW 05:32:18 10° SSE visible
27 Nov 11.3 07:21:13 10° WSW 07:29:07 15° SW 07:37:47 10° S visible
27 Nov 9.0 20:50:21 10° WSW 20:52:01 25° WSW 20:52:01 25° WSW visible
28 Nov 10.7 03:30:30 35° SE 03:30:30 35° SE 03:38:40 10° SE visible
28 Nov 10.4 05:31:56 30° SW 05:35:11 33° SSW 05:49:22 10° SSE visible
28 Nov 8.6 19:01:34 10° SSW 19:04:33 19° SSE 19:07:29 10° E visible
28 Nov 9.7 21:08:28 10° WSW 21:09:17 16° W 21:09:17 16° W visible
29 Nov 10.5 03:47:44 37° SSE 03:47:44 37° SSE 03:56:42 10° SE visible
29 Nov 10.7 05:49:10 21° WSW 05:53:40 25° SSW 06:05:51 10° SSE visible
29 Nov 7.8 19:18:49 10° SW 19:22:33 34° SSE 19:25:04 17° E visible
30 Nov 10.5 04:04:57 35° SSE 04:04:57 35° SSE 04:14:22 10° SE visible
30 Nov 11.0 06:06:23 13° WSW 06:12:14 17° SSW 06:21:26 10° S visible
30 Nov 7.0 19:36:34 10° SW 19:40:35 60° SSE 19:42:18 31° E visible
01 Dec 10.6 04:22:08 31° S 04:22:08 31° S 04:31:38 10° SSE visible
01 Dec 11.3 06:28:01 10° SW 06:30:57 11° SSW 06:34:04 10° SSW visible
01 Dec 6.7 19:54:38 10° WSW 19:58:40 82° NNW 19:59:30 54° ENE visible
